Location: Newark
(7.0858°N, 171.3717°E)
Time: 20:59:07
(UTC+00:00)

Vanguard 2 - Pass Details

Date: 29 November 2020
Orbit: 553 x 2937 km, 32.9° (Epoch: 17 January)

Event Time Altitude Azimuth Distance (km) Brightness Sun altitude
Rises 08:58:43 0° 254° (WSW) 4,507 12.4 -38.7°
Reaches altitude 10° 09:03:11 10° 233° (SW) 3,982 11.8 -39.7°
Maximum altitude 09:09:14 16° 200° (SSW) 4,056 11.5 -41.1°
Drops below altitude 10° 09:16:46 10° 167° (SSE) 5,107 11.7 -42.8°
Sets 09:24:09 0° 149° (SSE) 6,517 12.2 -44.5°
